Погода в Татарском Утяшкине

Россия / Республика Татарстан     55°12′34″N   51°20′04″E
темп.,
°C
ветер,
м/с
пор.,
м/с
влажн.,
%
обл.,
%
осадки,
мм/ч
давл.,
гПа
погр.,
м
4 марта, чт
чт400:00−7з51093100 0.1 1004434
03:00−10юз479697 0.1 1004102
06:00−9юз51195100 0.1 1002345
09:00−6юз61194100 0.6 1001467
12:00−3ююз81391100 0.4 998806
15:00−2ююз91496100 1.8 9951053
18:000зюз101794100 1.7 9921063
21:00−3зюз8178183 2.0 994886
5 марта, пт
пт500:00−6з7168776 0.0 996554
03:00−7з5129287 0.0 999356
06:00−9з3795100 0.0 1000183
09:00−9зсз3694100 0.0 1002263
12:00−8зсз359299 0.0 1004351
15:00−8зсз349183 0.0 1006280
18:00−14зсз23910 0.0 100820
21:00−15зюз22930 0.0 101020
6 марта, сб
сб600:00−16зюз23920 0.0 101121
03:00−16юз33959 0.0 101123
06:00−16ююз339781 0.0 101225
09:00−13ююз249585 0.0 1012127
12:00−9юз349198 0.1 1011329
15:00−8з239399 0.3 1010334
18:00−12зсз339690 0.1 101048
21:00−14сз239790 0.3 101134
7 марта, вс
вс700:00−17сз3395100 0.1 101155
03:00−22зсз239866 0.1 101223
06:00−23з2310055 0.0 101320
09:00−19юз359659 0.0 1014171
12:00−14ююз469363 0.0 1013293
15:00−12ю699275 0.0 1011390
18:00−13ю7149282 0.0 1008481
21:00−13ю8159491 0.2 1006497
8 марта, пн
пн800:00−10ю91693100 0.9 1001748
03:00−6ю81693100 1.7 997927
06:00−5ююз91694100 1.2 994902
09:00−7зюз5118493 2.1 995629
12:00−6юз7117695 0.0 9971139
15:00−7зюз7138197 0.2 9981056
18:00−10зюз7158327 0.0 1000542
21:00−11зюз6148842 0.0 1002464